Dodge City, KS

9:04 AM CDT on October 23, 2017 (GMT -0500)
Dodge City Regional

Weather History for KDDC - December, 2013

Change the Weather History Date:

Friday, December 6, 2013

  Actual Average Record
Temperature  
Mean Temperature 4 °F -  
Max Temperature 12 °F 45 °F 81 °F (1939)
Min Temperature -4 °F 23 °F -6 °F (1972)
Degree Days  
Heating Degree Days 61    
Moisture  
Dew Point -3 °F    
Average Humidity 63    
Maximum Humidity 84    
Minimum Humidity 38    
Precipitation  
Precipitation 0.00 in - - ()
Sea Level Pressure  
Sea Level Pressure 30.55 in    
Wind  
Wind Speed 13 mph (NNE)    
Max Wind Speed 20 mph    
Max Gust Speed -    
Visibility 9 miles    
Events      
Averages and records for this station are not official NWS values.
T = Trace of Precipitation, MM = Missing Value Source: NWS Daily Summary

Daily Weather History Graph

Daily Weather History Graph

Search for Another Location

Airport or City:

Trip Planner

Search our weather history database for the weather conditions in past years. The results will help you decide how hot, cold, wet, or windy it might be!

Date:

Astronomy

Dec. 06, 2013 Rise Set
Actual Time 7:41 AM CST 5:20 PM CST
Civil Twilight 7:12 AM CST 5:49 PM CST
Nautical Twilight 6:39 AM CST 6:22 PM CST
Astronomical Twilight 6:07 AM CST 6:54 PM CST
Moon 10:50 AM CST (12/6) 9:51 PM CST (12/6)
Length of Visible Light 10h 37m
Length of Day
9h 39m
Waxing Crescent, 19% of the Moon is Illuminated
Dec 6
Waxing Crescent
Dec 9
First Quarter
Dec 17
Full
Dec 25
Last Quarter
Jan 1
New

Hourly Weather History & Observations

Time (CST) Temp. Windchill Dew Point Humidity Pressure Visibility Wind Dir Wind Speed Gust Speed Precip Events Conditions
12:52 AM 10.0 °F -5.9 °F 6.1 °F 84% 30.42 in 5.0 mi NNE 13.8 mph - 0.00 in   Overcast
1:52 AM 10.0 °F -5.9 °F 5.0 °F 80% 30.42 in 8.0 mi NNE 13.8 mph - 0.00 in   Overcast
2:52 AM 10.0 °F -5.2 °F 5.0 °F 80% 30.42 in 7.0 mi NNE 12.7 mph - N/A   Overcast
3:52 AM 10.0 °F -4.5 °F 5.0 °F 80% 30.43 in 5.0 mi NNE 11.5 mph - N/A   Haze
4:52 AM 9.0 °F -7.9 °F 3.0 °F 77% 30.45 in 9.0 mi NNE 15.0 mph - N/A   Overcast
5:52 AM 9.0 °F -7.9 °F 3.0 °F 77% 30.45 in 10.0 mi NNE 15.0 mph - N/A   Overcast
6:52 AM 8.1 °F -10.2 °F -4.0 °F 58% 30.48 in 10.0 mi NNE 17.3 mph - N/A   Overcast
7:52 AM 8.1 °F -8.4 °F -2.0 °F 64% 30.50 in 10.0 mi NNE 13.8 mph - N/A   Overcast
8:52 AM 8.1 °F -9.6 °F -4.0 °F 58% 30.51 in 10.0 mi NNE 16.1 mph - N/A   Overcast
9:52 AM 9.0 °F -10.0 °F -4.0 °F 56% 30.54 in 10.0 mi North 19.6 mph - N/A   Overcast
10:52 AM 10.0 °F -6.5 °F -2.9 °F 56% 30.56 in 10.0 mi NNE 15.0 mph - N/A   Overcast
11:52 AM 12.0 °F -5.6 °F -0.9 °F 56% 30.56 in 10.0 mi NNE 18.4 mph - N/A   Overcast
12:52 PM 12.0 °F -5.1 °F -0.9 °F 56% 30.55 in 10.0 mi NNE 17.3 mph - N/A   Overcast
1:52 PM 12.9 °F -2.8 °F -0.9 °F 54% 30.53 in 10.0 mi NE 15.0 mph - N/A   Overcast
2:52 PM 12.0 °F -4.0 °F -2.0 °F 53% 30.53 in 10.0 mi NE 15.0 mph - N/A   Overcast
3:52 PM 12.9 °F -2.2 °F -2.0 °F 51% 30.54 in 10.0 mi ENE 13.8 mph - N/A   Clear
4:52 PM 10.9 °F -0.8 °F -2.9 °F 54% 30.58 in 10.0 mi NNE 8.1 mph - N/A   Clear
5:52 PM 3.0 °F -11.5 °F -6.0 °F 66% 30.59 in 10.0 mi NNE 9.2 mph - N/A   Clear
6:52 PM 1.9 °F -10.6 °F -7.1 °F 66% 30.63 in 10.0 mi NE 6.9 mph - N/A   Clear
7:52 PM -0.9 °F -14.1 °F -9.0 °F 69% 30.66 in 10.0 mi NNE 6.9 mph - N/A   Clear
8:52 PM -2.0 °F - -9.0 °F 72% 30.68 in 10.0 mi Calm Calm - N/A   Clear
9:52 PM -2.0 °F -13.9 °F -9.9 °F 69% 30.67 in 10.0 mi NNE 5.8 mph - N/A   Clear
10:52 PM -2.9 °F -15.0 °F -11.0 °F 68% 30.68 in 10.0 mi NNE 5.8 mph - N/A   Clear
11:52 PM -4.0 °F -16.3 °F -11.0 °F 72% 30.69 in 10.0 mi North 5.8 mph - N/A   Clear